Вернуться в каталог

STARLINK-34627

АктивенСвязьVLEO
NORAD 65016·PAYLOAD·🇺🇸 United States

Запущен Jul 30, 2025 с Cape Canaveral Space Force Station

Loading…

Ближайшие Пролёты (ближайшие 24 часа)

TLE

СвежийSource: CelesTrak SupGP

Эпоха: Sep 15, 2026, 02:26 UTC

1 65016C 25161B   26258.10187500  .00034437  00000+0  10176-2 0  2583
2 65016  53.1577 132.7863 0001299  83.4941 237.0501 15.34369162    17

Отслеживайте STARLINK-34627 в реальном времени с AllMySat

Download on the App Store